Regional Weather Roundup
Issued by NWS Bismarck, ND

Home | Current Version | Previous Version | Text Only | Print | Product List | Glossary On
Versions: 1 2 3 4 5 6 7 8 9 10 11 12 13 14 15 16 17 18 19 20 21 22 23 24 25 26 27 28 29 30 31 32 33 34 35 36 37 38 39 40 41 42 43 44 45 46 47 48 49 50
000
ASUS43 KBIS 222220
RWRBIS

NWR BROADCAST TEXT
NATIONAL WEATHER SERVICE BISMARCK ND
500 PM CDT MON SEP 22 2014

NOTE: "FAIR" INDICATES FEW OR NO CLOUDS BELOW 12,000 FEET WITH NO
SIGNIFICANT WEATHER AND/OR OBSTRUCTIONS TO VISIBILITY.


CITY           SKY/WX    TMP DP  RH WIND       PRES   REMARKS
WILLISTON      SUNNY     83  48  29 SE15      29.88F
MINOT          SUNNY     81  45  28 SE16G23   29.93F
MINOT AFB      SUNNY     80  48  32 S14       29.92F
BISMARCK       SUNNY     83  48  29 SE15      29.96F
DICKINSON      MOSUNNY   72  49  44 SE13      29.92S
GARRISON         N/A     80  50  34 S12G17    29.94F
HETTINGER ARPT MOSUNNY   75  47  36 SE16G24   29.94F
JAMESTOWN      SUNNY     75  48  38 S14       30.03F
BEACH            N/A     73  48  40 SE12      29.92F
CARRINGTON     FAIR      77  45  31 S15       30.02S
CROSBY         FAIR      82  39  21 SE10      29.89F
HARVEY         FAIR      79  43  27 S16G22    29.98F
HAZEN          FAIR      79  48  34 SE21      29.92F
LINTON         FAIR      77  50  38 SE15G21   29.97F
MANDAN         FAIR      79  45  29 S21G31    29.97S
OAKES            N/A     77  46  33 S14G20    30.05F
RUGBY          FAIR      79  45  29 S10G20    29.97F
STANLEY        FAIR      77  48  36 S18G25    29.93F
TIOGA          FAIR      77  46  33 SE18G26   29.95F
WATFORD CITY   FAIR      82  46  28 SE15G21   29.87F
$$

CITY           SKY/WX    TMP DP  RH WIND       PRES   REMARKS
GRAND FORKS    SUNNY     77  47  34 S10       30.02F
GRAND FORKS AF SUNNY     77  44  30 SW13      30.03F
DEVILS LAKE    SUNNY     77  43  29 S15       29.99F
FARGO          SUNNY     77  47  34 S12       30.06F
CANDO          FAIR      77  41  27 S14G20    30.00F
CAVALIER       FAIR      77  45  31 SW8       30.00F
GRAFTON        FAIR      77  46  33 SW10      30.01F
GWINNER        CLEAR     77  46  33 S12       30.08F
LANGDON        FAIR      75  41  29 S13G18    30.01F
ROLLA          FAIR      77  39  25 S13       30.00F
WALHALLA       FAIR      77  41  27 S10       30.00F
$$

CITY           SKY/WX    TMP DP  RH WIND       PRES   REMARKS
ABERDEEN       MOSUNNY   78  48  34 S17       30.05F
MOBRIDGE       MOSUNNY   81  51  35 SE20G28   29.95F
BUFFALO          N/A     81  49  32 SE13G20   29.85F
RAPID CITY     CLOUDY    75  49  39 S21G28    29.93F
GLASGOW        SUNNY     81  48  31 SE8       29.84F
SIDNEY         SUNNY     84  48  28 S12       29.87F
WOLF POINT     SUNNY     86  48  26 S10       29.84F
GLENDIVE       MOSUNNY   77  50  38 S7        29.89S
MILES CITY     PTSUNNY   81  48  31 SE3       29.85F
BAKER          PTSUNNY   79  50  36 SE15      29.91F
$$

CITY           SKY/WX    TMP DP  RH WIND       PRES   REMARKS
BILLINGS       PTSUNNY   81  45  28 W10       29.91F
GREAT FALLS    MOSUNNY   83  46  27 W10       29.88F
REGINA         SUNNY     81  48  32 S14G21    29.85
ESTEVAN        SUNNY     81  46  30 SE12      29.91F
$$




USA.gov is the U.S. government's official web portal to all federal, state and local government web resources and services.